Weather Service Report


650 
ASUS44 KJAN 181410
RWRMS 

MISSISSIPPI HOURLY WEATHER ROUNDUP
NATIONAL WEATHER SERVICE JACKSON MS
800 AM CST WED JAN 18 2017

NOTE: "FAIR: INDICATES FEW OR NO CLOUDS BELOW 12,000 FEET WITH NO
SIGNIFICANT WEATHER AND/OR OBSTRUCTIONS TO VISIBILITY.

MSZ001>002-007>008-010>013-018>021-025>028-034>036-181500-
NORTHWEST MISSISSIPPI
  
CITY           SKY/WX    TMP DP  RH WIND       PRES   REMARKS
BATESVILLE     CLOUDY    49  45  85 NE5       30.22R                  
CLARKSDALE     CLOUDY    50  48  93 N7        30.23R                  
CLEVELAND      CLOUDY    51  51 100 N8        30.21R                  
GREENWOOD      CLOUDY    54  49  83 N5        30.18R                  
GREENVILLE     CLOUDY    51  46  83 NE8       30.19R                  
OLIVE BRANCH   MOCLDY   N/A N/A N/A NE5       30.21S                  
OXFORD         CLOUDY    48  45  87 E5        30.23R                  
TUNICA         CLOUDY    46  41  81 N5        30.24R                  
WINONA         CLOUDY    53  52  99 CALM      30.17S                  
$$

MSZ003>006-009-014>017-022>024-029>033-037>039-181500-
NORTHEAST MISSISSIPPI
  
CITY           SKY/WX    TMP DP  RH WIND       PRES   REMARKS
COLUMBUS AFB   CLOUDY    57  54  88 N5        30.18R                  
CORINTH        CLOUDY    46  41  81 NE6       30.21R                  
GOLDN TRIANGLE CLOUDY    55  52  88 CALM      30.14R                  
STARKVILLE     CLOUDY    54  54 100 CALM      30.19S                  
TUPELO         CLOUDY    51  47  86 NW6       30.21R                  
$$

MSZ040-058-181500-
CENTRAL MISSISSIPPI
  
CITY           SKY/WX    TMP DP  RH WIND       PRES   REMARKS
JACKSON INTL   FOG       59  58  96 CALM      30.14S VSB 1/4          
JACKSON HAWKNS CLOUDY    60  58  92 E3        30.16S FOG              
MADISON        CLOUDY    57  55  94 CALM      30.15S                  
MERIDIAN KEY   CLOUDY    67  66  97 CALM      30.17R                  
MERIDIAN NAS   FOG       62  59  90 NE6       30.18R VSB 1            
RAYMOND        DRZL/FOG  59  59 100 CALM      30.15S VSB 3/4          
VICKSBURG VKS  CLOUDY    59  57  94 CALM      30.15S FOG              
$$

MSZ059>079-181500-
SOUTH MISSISSIPPI
  
CITY           SKY/WX    TMP DP  RH WIND       PRES   REMARKS
BROOKHAVEN     CLOUDY    66  66 100 SE3       30.16F FOG              
HATTIESBURG    CLOUDY    67  65  93 CALM      30.18R                  
LAUREL         FAIR      65  65 100 S3        30.18R                  
MCCOMB         CLOUDY    66  65  96 S5        30.15S FOG              
NATCHEZ        CLOUDY    61  57  88 CALM      30.14R                  
PINE BELT      CLOUDY    66  63  88 S3        30.19R                  
$$

MSZ080>082-181500-
COASTAL MISSISSIPPI
  
CITY           SKY/WX    TMP DP  RH WIND       PRES   REMARKS
BAY ST LOUIS   FOG       66  63  88 SE3       30.17R VSB 1/2          
BILOXI         FOG       66  66 100 SE3       30.16R VSB 0            
PASCAGOULA     FOG       67  65  93 CALM      30.17R VSB 1/4          
GULFPORT       FOG       67  67 100 SE5       30.16R VSB<1/4          
$$

LAZ007>009-015>016-023>026-181500-
NORTHEAST LOUISIANA
  
CITY           SKY/WX    TMP DP  RH WIND       PRES   REMARKS
BASTROP        LGT RAIN  52  51  97 NE5       30.16R                  
TALLULAH/VBURG CLOUDY    56  54  93 E5        30.16S                  
VIDALIA        CLOUDY    58  58 100 NE5       30.16S FOG              
$$
  

Return to Home page


Western Regional Climate Center, wrcc@dri.edu